When you browse on this site, cookies collect data to enhance your experience and personalize the content and advertising you see.
Visit our Privacy Policy to learn more. By continuing to use the site, you agree to this use of cookies and data.
EN

Hourly Weather East Kilbride

Today, 11 July, Saturday

Time Temperature Precipitation Wind Pressure Humidity
00:00 +8°C° 0 mm 3 mps 753 mmHg 88%
01:00 +8°C° 0 mm 3 mps 753 mmHg 89%
02:00 +8°C° 0 mm 3 mps 754 mmHg 89%
03:00 +7°C° 0 mm 2 mps 754 mmHg 90%
04:00 +8°C° 0 mm 2 mps 754 mmHg 88%
05:00 +9°C° 0 mm 2 mps 754 mmHg 86%
06:00 +10°C° 0 mm 2 mps 754 mmHg 84%
07:00 +11°C° 0 mm 3 mps 755 mmHg 79%
08:00 +12°C° 0 mm 4 mps 755 mmHg 73%
09:00 +14°C° 0 mm 4 mps 755 mmHg 68%
10:00 +14°C° 0 mm 5 mps 755 mmHg 67%
11:00 +14°C° 0 mm 5 mps 756 mmHg 66%
12:00 +15°C° 0 mm 5 mps 756 mmHg 64%
13:00 +15°C° 0 mm 5 mps 756 mmHg 64%
14:00 +15°C° 0 mm 5 mps 756 mmHg 63%
15:00 +15°C° 0 mm 5 mps 756 mmHg 63%
16:00 +15°C° 0 mm 5 mps 756 mmHg 65%
17:00 +15°C° 0 mm 4 mps 756 mmHg 67%
18:00 +14°C° 0 mm 4 mps 756 mmHg 68%
19:00 +13°C° 0 mm 4 mps 757 mmHg 74%
20:00 +11°C° 0 mm 3 mps 757 mmHg 80%
21:00 +10°C° 0 mm 2 mps 757 mmHg 85%
22:00 +9°C° 0 mm 2 mps 757 mmHg 87%
23:00 +9°C° 0 mm 2 mps 757 mmHg 89%

Tomorrow, 12 July, Sunday

Time Temperature Precipitation Wind Pressure Humidity
00:00 +8°C° 0 mm 2 mps 757 mmHg 90%
01:00 +8°C° 0 mm 2 mps 757 mmHg 91%
02:00 +8°C° 0 mm 2 mps 757 mmHg 92%
03:00 +7°C° 0 mm 2 mps 757 mmHg 93%
04:00 +8°C° 0 mm 2 mps 757 mmHg 92%
05:00 +9°C° 0 mm 2 mps 757 mmHg 91%
06:00 +10°C° 0 mm 3 mps 757 mmHg 89%
07:00 +11°C° 0 mm 3 mps 757 mmHg 84%
08:00 +12°C° 0 mm 3 mps 757 mmHg 78%
09:00 +13°C° 0 mm 3 mps 757 mmHg 73%
10:00 +14°C° 0 mm 4 mps 757 mmHg 70%
11:00 +15°C° 0 mm 4 mps 757 mmHg 68%
12:00 +17°C° 0 mm 4 mps 757 mmHg 65%
13:00 +17°C° 0 mm 4 mps 757 mmHg 64%
14:00 +17°C° 0 mm 4 mps 756 mmHg 63%
15:00 +18°C° 0 mm 4 mps 756 mmHg 61%
16:00 +17°C° 0 mm 4 mps 756 mmHg 66%
17:00 +17°C° 0 mm 4 mps 756 mmHg 70%
18:00 +17°C° 0 mm 4 mps 755 mmHg 74%
19:00 +16°C° 0 mm 3 mps 755 mmHg 76%
20:00 +13°C° 0 mm 3 mps 755 mmHg 78%
21:00 +12°C° 0 mm 3 mps 755 mmHg 81%
22:00 +12°C° 0 mm 3 mps 755 mmHg 80%
23:00 +12°C° 0 mm 3 mps 754 mmHg 79%

Day after tomorrow, 13 July, Monday

Time Temperature Precipitation Wind Pressure Humidity
00:00 +11°C° 0 mm 3 mps 754 mmHg 79%
01:00 +11°C° 0.4 mm 3 mps 753 mmHg 83%
02:00 +12°C° 0.4 mm 3 mps 753 mmHg 88%
03:00 +12°C° 0.4 mm 4 mps 752 mmHg 92%
04:00 +12°C° 0.7 mm 4 mps 752 mmHg 94%
05:00 +13°C° 0.7 mm 4 mps 752 mmHg 95%
06:00 +13°C° 0.7 mm 4 mps 751 mmHg 96%
07:00 +13°C° 0.1 mm 4 mps 751 mmHg 95%
08:00 +13°C° 0.1 mm 5 mps 751 mmHg 94%
09:00 +14°C° 0.1 mm 5 mps 751 mmHg 94%
10:00 +15°C° 0.3 mm 5 mps 751 mmHg 90%
11:00 +16°C° 0.3 mm 6 mps 751 mmHg 86%
12:00 +17°C° 0.3 mm 6 mps 750 mmHg 81%
13:00 +16°C° 0.4 mm 6 mps 750 mmHg 84%
14:00 +15°C° 0.4 mm 5 mps 750 mmHg 86%
15:00 +14°C° 0.4 mm 4 mps 750 mmHg 88%
16:00 +15°C° 0.1 mm 4 mps 750 mmHg 87%
17:00 +15°C° 0.1 mm 4 mps 749 mmHg 85%
18:00 +15°C° 0.1 mm 4 mps 749 mmHg 84%
19:00 +14°C° 0 mm 4 mps 749 mmHg 87%
20:00 +13°C° 0 mm 3 mps 749 mmHg 90%
21:00 +12°C° 0 mm 3 mps 749 mmHg 94%
22:00 +12°C° 0 mm 2 mps 749 mmHg 94%
23:00 +12°C° 0 mm 2 mps 749 mmHg 95%

14 July, Tuesday

Time Temperature Precipitation Wind Pressure Humidity
00:00 +10°C° 0 mm 2 mps 749 mmHg 96%
01:00 +10°C° 0 mm 2 mps 749 mmHg 96%
02:00 +10°C° 0 mm 2 mps 748 mmHg 96%
03:00 +12°C° 0 mm 2 mps 748 mmHg 96%
04:00 +12°C° 0.1 mm 2 mps 748 mmHg 95%
05:00 +12°C° 0.1 mm 2 mps 748 mmHg 94%
06:00 +13°C° 0.1 mm 2 mps 748 mmHg 93%
07:00 +12°C° 0.2 mm 3 mps 748 mmHg 91%
08:00 +13°C° 0.2 mm 3 mps 748 mmHg 90%
09:00 +13°C° 0.2 mm 4 mps 747 mmHg 88%
10:00 +12°C° 0.3 mm 4 mps 747 mmHg 89%
11:00 +12°C° 0.3 mm 4 mps 747 mmHg 91%
12:00 +11°C° 0.3 mm 4 mps 746 mmHg 93%
13:00 +10°C° 0.2 mm 5 mps 746 mmHg 93%
14:00 +10°C° 0.2 mm 6 mps 745 mmHg 93%
15:00 +10°C° 0.2 mm 6 mps 745 mmHg 94%
16:00 +11°C° 0.4 mm 6 mps 744 mmHg 94%
17:00 +11°C° 0.4 mm 6 mps 744 mmHg 95%
18:00 +11°C° 0.4 mm 6 mps 743 mmHg 95%
19:00 +11°C° 0.7 mm 6 mps 743 mmHg 96%
20:00 +11°C° 0.7 mm 6 mps 742 mmHg 96%
21:00 +11°C° 0.7 mm 6 mps 742 mmHg 97%
22:00 +12°C° 0.3 mm 5 mps 742 mmHg 96%
23:00 +13°C° 0.3 mm 5 mps 742 mmHg 96%

15 July, Wednesday

Time Temperature Precipitation Wind Pressure Humidity
00:00 +13°C° 0.3 mm 5 mps 742 mmHg 96%
01:00 +13°C° 0 mm 5 mps 742 mmHg 95%
02:00 +12°C° 0 mm 5 mps 742 mmHg 95%
03:00 +12°C° 0 mm 5 mps 743 mmHg 94%
04:00 +12°C° 0 mm 5 mps 743 mmHg 93%
05:00 +12°C° 0 mm 5 mps 744 mmHg 93%
06:00 +12°C° 0 mm 4 mps 744 mmHg 92%
07:00 +13°C° 0 mm 4 mps 745 mmHg 87%
08:00 +14°C° 0 mm 4 mps 745 mmHg 82%
09:00 +15°C° 0 mm 4 mps 746 mmHg 78%
10:00 +17°C° 0 mm 4 mps 746 mmHg 74%
11:00 +18°C° 0 mm 3 mps 747 mmHg 71%
12:00 +19°C° 0 mm 3 mps 748 mmHg 67%
13:00 +19°C° 0 mm 3 mps 748 mmHg 68%
14:00 +19°C° 0 mm 4 mps 748 mmHg 68%
15:00 +19°C° 0 mm 4 mps 749 mmHg 68%
16:00 +19°C° 0 mm 4 mps 749 mmHg 70%
17:00 +18°C° 0 mm 4 mps 749 mmHg 72%
18:00 +16°C° 0 mm 5 mps 749 mmHg 74%
19:00 +15°C° 0 mm 4 mps 749 mmHg 78%
20:00 +13°C° 0 mm 3 mps 750 mmHg 81%
21:00 +12°C° 0 mm 3 mps 750 mmHg 85%
22:00 +12°C° 0 mm 3 mps 750 mmHg 86%
23:00 +12°C° 0 mm 3 mps 750 mmHg 86%

16 July, Thursday

Time Temperature Precipitation Wind Pressure Humidity
00:00 +13°C° 0 mm 2 mps 750 mmHg 86%
01:00 +13°C° 0 mm 2 mps 750 mmHg 88%
02:00 +13°C° 0 mm 2 mps 750 mmHg 91%
03:00 +14°C° 0 mm 2 mps 750 mmHg 93%
04:00 +14°C° 0 mm 2 mps 750 mmHg 93%
05:00 +13°C° 0 mm 3 mps 750 mmHg 94%
06:00 +13°C° 0 mm 3 mps 750 mmHg 94%
07:00 +14°C° 0 mm 3 mps 750 mmHg 94%
08:00 +14°C° 0 mm 3 mps 750 mmHg 93%
09:00 +15°C° 0 mm 4 mps 750 mmHg 92%
10:00 +15°C° 0 mm 4 mps 750 mmHg 91%
11:00 +17°C° 0 mm 4 mps 750 mmHg 91%
12:00 +16°C° 0 mm 5 mps 750 mmHg 90%
13:00 +17°C° 0.1 mm 5 mps 750 mmHg 88%
14:00 +17°C° 0.1 mm 5 mps 750 mmHg 87%
15:00 +19°C° 0.1 mm 5 mps 750 mmHg 85%
16:00 +19°C° 0.2 mm 5 mps 750 mmHg 85%
17:00 +19°C° 0.2 mm 5 mps 749 mmHg 86%
18:00 +17°C° 0.2 mm 5 mps 749 mmHg 86%
19:00 +17°C° 0.5 mm 4 mps 749 mmHg 89%
20:00 +15°C° 0.5 mm 4 mps 750 mmHg 92%
21:00 +16°C° 0.5 mm 3 mps 750 mmHg 95%
22:00 +14°C° 0.1 mm 3 mps 750 mmHg 95%
23:00 +14°C° 0.1 mm 3 mps 750 mmHg 95%
Show more